Regional Weather Roundup
Issued by NWS Green Bay, WI

Home | Current Version | Previous Version | Graphics & Text | Print | Product List | Glossary Off
Versions: 1 2 3 4 5 6 7 8 9 10 11 12 13 14 15 16 17 18 19 20 21 22 23 24 25 26 27 28 29 30 31 32 33 34 35 36 37 38 39 40 41 42 43 44 45 46 47 48 49 50

000
ASUS43 KGRB 210410
RWRGRB

NORTH-CENTRAL AND NORTHEAST WISCONSIN REGIONAL WEATHER ROUNDUP
NATIONAL WEATHER SERVICE GREEN BAY WI
1100 PM CDT WED AUG 20 2014

WIZ005-009-010>012-018-019-210500-
NORTH CENTRAL WISCONSIN

CITY           SKY/WX    TMP DP  RH WIND       PRES   REMARKS
IRONWOOD       CLEAR     61  61 100 CALM      29.94R
MANITOWISH WTR CLOUDY    62  60  95 E5        29.98R
ARBOR VITAE    CLOUDY    63  59  86 CALM      29.98S
EAGLE RIVER    CLOUDY    63  61  94 E3        29.97S
LAND O LAKES   CLOUDY    62  60  94 CALM      29.99S
RHINELANDER    CLOUDY    60  59  96 CALM      29.99R
PHILLIPS       PTCLDY    58  58 100 CALM      29.97R
ANTIGO         CLOUDY    59  59  97 CALM      29.98S
TOMAHAWK       FOG       54  53  96 CALM      29.98S VSB 1/2
MERRILL        MOCLDY    56  56 100 CALM      29.97S
$$

WIZ013-073-210500-
NORTHEAST WISCONSIN

CITY           SKY/WX    TMP DP  RH WIND       PRES   REMARKS
IRON MOUNTAIN  CLOUDY    64  61  90 CALM      29.95S
MARINETTE      CLOUDY    66  63  88 E5        29.94R
OCONTO         CLOUDY    61  61 100 CALM      29.94S
$$

WIZ017-030-035>037-045-210500-
CENTRAL WISCONSIN

CITY           SKY/WX    TMP DP  RH WIND       PRES   REMARKS
MEDFORD        PTCLDY    59  59 100 E5        29.96S
WAUSAU         CLEAR     62  61  96 CALM      29.95S
MOSINEE        CLEAR     61  61 100 NE5       29.97S
MARSHFIELD     MOCLDY    64  61  90 E5        29.95S
WISC RAPIDS    PTCLDY    66  62  87 E3        29.96S
STEVENS POINT  PTCLDY    59  58  96 CALM      29.96S
WAUPACA        PTCLDY    65  63  93 CALM      29.95S
SHAWANO        PTCLDY    65  62  91 SW3       29.95S
CLINTONVILLE   CLEAR     61  59  94 CALM      29.95R
$$

WIZ038-039-048-051-210500-
FOX VALLEY

CITY           SKY/WX    TMP DP  RH WIND       PRES   REMARKS
NWS GREEN BAY  CLEAR     62  61  96 S3        29.95R
APPLETON       MOCLDY    66  61  82 CALM      29.95R
OSHKOSH        PTCLDY    64  63  96 S5        29.95R
FOND DU LAC    MOCLDY    67  63  87 E3        29.96R
$$

WIZ022-050-052-210500-
EAST CENTRAL WISCONSIN

CITY           SKY/WX    TMP DP  RH WIND       PRES   REMARKS
STURGEON BAY   CLOUDY    64  61  88 S5        29.96R
MANITOWOC      FOG       64  63  96 CALM      29.96S VSB 3/4
SHEBOYGAN      PTCLDY    63  61  93 CALM      29.96R FOG
$$

LMZ563-521-522-541>543-210500-
LAKESHORE

STATION/POSITION TIME  TEMP    WIND        PRES    VSBY  WAVE
                       AIR SEA DIR/SP/G                  HT/PER
                 (UTC) (F)     (DEG/KT/KT) (MB)    (MI)  (FT/S)
SHEBOYGAN LKSHOR 0400   67 64  100/  2/  3 1014.5R
KEWAUNEE LKSHORE 0400   63     260/  1/  3 1013.5R
TWO RIVERS CG    0300   64                   N/A           0
NORTHPORT PIER   0400   63     210/  4/  6 1014.2R
N MID LAKE BUOY  0400   62 62   40/  4/  4 1013.5R         0
S GREEN BAY BUOY 0400   68     VRB  8      1014.9F
SISTER BAY LKSHO 0300   64        CALM       N/A
CHAMBERS ISLAND  0400   64      CALM  /  3 1014.2R
MENOMINEE LKSHOR 0400   67     110/  6/  6 1014.6R
$$



USA.gov is the U.S. government's official web portal to all federal, state and local government web resources and services.